| time (UTC) | temp F | wind direction | speed MPH | gust MPH | rain 1hr in | rain 24hr in | rain mn in | humidity % | barometer mb |
| 20260508041641 | 38 | 292 | 1.0 | 2.0 | 0.00 | 0.14 | 0.00 | 95 | 1017.3 |
| 20260508031639 | 38 | 275 | 1.0 | 2.0 | 0.00 | 0.14 | 0.14 | 94 | 1017.1 |
| 20260508021638 | 40 | 0 | 0.0 | 0.0 | 0.00 | 0.14 | 0.14 | 94 | 1017.4 |
| 20260508014638 | 40 | 270 | 1.0 | 2.0 | 0.02 | 0.14 | 0.14 | 93 | 1017.2 |
| 20260508011641 | 41 | 268 | 1.0 | 2.0 | 0.03 | 0.14 | 0.14 | 93 | 1017.2 |
| 20260508004638 | 42 | 259 | 1.0 | 3.0 | 0.01 | 0.12 | 0.12 | 92 | 1017.0 |
| 20260508001640 | 41 | 268 | 1.0 | 3.0 | 0.00 | 0.11 | 0.11 | 92 | 1016.4 |
| 20260507234439 | 42 | 262 | 2.0 | 4.0 | 0.01 | 0.11 | 0.11 | 91 | 1016.1 |
| 20260507231238 | 42 | 250 | 2.0 | 7.0 | 0.03 | 0.11 | 0.11 | 89 | 1016.1 |
| 20260507224038 | 43 | 262 | 2.0 | 7.0 | 0.02 | 0.10 | 0.10 | 86 | 1015.9 |
| 20260507222438 | 46 | 258 | 2.0 | 4.0 | 0.00 | 0.08 | 0.08 | 78 | 1015.7 |
| 20260507220838 | 47 | 273 | 2.0 | 6.0 | 0.00 | 0.08 | 0.08 | 73 | 1015.4 |
| 20260507220041 | 47 | 259 | 3.0 | 6.0 | 0.00 | 0.08 | 0.08 | 72 | 1015.5 |
| 20260507215240 | 48 | 284 | 3.0 | 6.0 | 0.00 | 0.08 | 0.08 | 71 | 1015.4 |
| 20260507214438 | 47 | 257 | 2.0 | 4.0 | 0.00 | 0.08 | 0.08 | 73 | 1015.2 |
| 20260507213639 | 47 | 270 | 3.0 | 6.0 | 0.00 | 0.08 | 0.08 | 72 | 1015.1 |
| 20260507213238 | 47 | 266 | 3.0 | 6.0 | 0.00 | 0.08 | 0.08 | 72 | 1015.2 |
| 20260507212839 | 47 | 266 | 3.0 | 6.0 | 0.00 | 0.08 | 0.08 | 72 | 1015.2 |
| 20260507212038 | 47 | 266 | 2.0 | 6.0 | 0.00 | 0.08 | 0.08 | 73 | 1015.2 |
| 20260507211838 | 47 | 266 | 2.0 | 6.0 | 0.00 | 0.08 | 0.08 | 73 | 1015.2 |
| 20260507211439 | 47 | 279 | 3.0 | 6.0 | 0.00 | 0.09 | 0.08 | 72 | 1015.1 |
| 20260507211239 | 47 | 279 | 3.0 | 6.0 | 0.00 | 0.09 | 0.08 | 72 | 1015.1 |
| 20260507211138 | 47 | 279 | 3.0 | 6.0 | 0.00 | 0.09 | 0.08 | 72 | 1015.1 |
| 20260507211040 | 47 | 279 | 3.0 | 6.0 | 0.00 | 0.09 | 0.08 | 72 | 1015.1 |
| 20260507210800 | 47 | 274 | 2.0 | 7.0 | 0.00 | 0.09 | 0.08 | 73 | 1015.0 |
| 20260507210658 | 47 | 274 | 2.0 | 7.0 | 0.00 | 0.09 | 0.08 | 73 | 1015.0 |
| 20260507210600 | 47 | 274 | 2.0 | 7.0 | 0.00 | 0.09 | 0.08 | 73 | 1015.0 |
| 20260507205842 | 47 | 265 | 3.0 | 7.0 | 0.00 | 0.09 | 0.08 | 74 | 1015.0 |
| 20260507205442 | 47 | 268 | 3.0 | 7.0 | 0.00 | 0.09 | 0.08 | 74 | 1014.9 |
| 20260507205043 | 47 | 283 | 3.0 | 6.0 | 0.00 | 0.09 | 0.08 | 76 | 1014.9 |
| 20260507204642 | 47 | 283 | 3.0 | 6.0 | 0.00 | 0.09 | 0.08 | 76 | 1014.9 |
| 20260507204442 | 47 | 252 | 2.0 | 4.0 | 0.00 | 0.09 | 0.08 | 74 | 1014.7 |
| 20260507204242 | 47 | 252 | 2.0 | 4.0 | 0.00 | 0.09 | 0.08 | 74 | 1014.7 |
| 20260507204145 | 47 | 252 | 2.0 | 4.0 | 0.00 | 0.09 | 0.08 | 74 | 1014.7 |
| 20260507204042 | 47 | 252 | 2.0 | 4.0 | 0.00 | 0.09 | 0.08 | 74 | 1014.7 |
| 20260507203710 | 47 | 287 | 2.0 | 6.0 | 0.00 | 0.09 | 0.08 | 75 | 1014.8 |
| 20260507203331 | 47 | 294 | 1.0 | 6.0 | 0.00 | 0.09 | 0.08 | 75 | 1014.5 |
| 20260507203127 | 47 | 294 | 1.0 | 6.0 | 0.00 | 0.09 | 0.08 | 75 | 1014.5 |
| 20260507202727 | 47 | 271 | 3.0 | 13.0 | 0.00 | 0.09 | 0.08 | 75 | 1014.8 |
| 20260507202528 | 47 | 271 | 3.0 | 13.0 | 0.00 | 0.09 | 0.08 | 75 | 1014.8 |
| 20260507202329 | 47 | 271 | 3.0 | 13.0 | 0.00 | 0.09 | 0.08 | 75 | 1014.8 |
| 20260507200700 | 49 | 275 | 3.0 | 8.0 | 0.00 | 0.09 | 0.08 | 71 | 1014.6 |
| 20260507195101 | 48 | 260 | 2.0 | 7.0 | 0.00 | 0.09 | 0.08 | 71 | 1014.9 |
| 20260507193500 | 47 | 288 | 2.0 | 6.0 | 0.00 | 0.09 | 0.08 | 72 | 1014.6 |
| 20260507193100 | 47 | 279 | 2.0 | 6.0 | 0.00 | 0.09 | 0.08 | 75 | 1014.6 |
| 20260507192700 | 46 | 283 | 1.0 | 4.0 | 0.00 | 0.09 | 0.08 | 77 | 1014.6 |
| 20260507191900 | 46 | 289 | 1.0 | 4.0 | 0.00 | 0.09 | 0.08 | 79 | 1014.8 |
| 20260507191702 | 46 | 289 | 1.0 | 4.0 | 0.00 | 0.09 | 0.08 | 79 | 1014.8 |
| 20260507191502 | 45 | 286 | 1.0 | 4.0 | 0.00 | 0.09 | 0.08 | 79 | 1014.9 |
| 20260507191100 | 45 | 286 | 1.0 | 4.0 | 0.00 | 0.09 | 0.08 | 79 | 1014.9 |
| 20260507191000 | 45 | 286 | 1.0 | 4.0 | 0.00 | 0.09 | 0.08 | 79 | 1014.9 |
| 20260507190900 | 45 | 332 | 2.0 | 9.0 | 0.00 | 0.09 | 0.08 | 80 | 1014.9 |
| 20260507190800 | 45 | 332 | 2.0 | 9.0 | 0.00 | 0.09 | 0.08 | 80 | 1014.9 |
| 20260507190700 | 45 | 332 | 2.0 | 9.0 | 0.00 | 0.09 | 0.08 | 80 | 1014.9 |
| 20260507190501 | 45 | 332 | 2.0 | 9.0 | 0.00 | 0.09 | 0.08 | 80 | 1014.9 |
| 20260507185110 | 45 | 341 | 3.0 | 7.0 | 0.00 | 0.09 | 0.08 | 81 | 1014.5 |
| 20260507183510 | 46 | 326 | 3.0 | 7.0 | 0.00 | 0.09 | 0.08 | 79 | 1014.7 |
| 20260507181910 | 50 | 302 | 4.0 | 14.0 | 0.00 | 0.09 | 0.08 | 69 | 1014.3 |
| 20260507181110 | 51 | 300 | 6.0 | 14.0 | 0.00 | 0.09 | 0.08 | 66 | 1014.6 |
| 20260507180710 | 53 | 279 | 4.0 | 10.0 | 0.00 | 0.09 | 0.08 | 59 | 1014.2 |
| 20260507180310 | 54 | 255 | 3.0 | 6.0 | 0.00 | 0.09 | 0.08 | 55 | 1014.1 |
| 20260507175910 | 54 | 255 | 3.0 | 6.0 | 0.00 | 0.09 | 0.08 | 55 | 1014.1 |
| 20260507175709 | 52 | 267 | 2.0 | 6.0 | 0.00 | 0.09 | 0.08 | 63 | 1014.3 |
| 20260507175510 | 52 | 267 | 2.0 | 6.0 | 0.00 | 0.09 | 0.08 | 63 | 1014.3 |
| 20260507175409 | 52 | 267 | 2.0 | 6.0 | 0.00 | 0.09 | 0.08 | 63 | 1014.3 |
| 20260507175310 | 52 | 267 | 2.0 | 6.0 | 0.00 | 0.09 | 0.08 | 63 | 1014.3 |
| 20260507175209 | 52 | 267 | 2.0 | 6.0 | 0.00 | 0.09 | 0.08 | 63 | 1014.3 |
| 20260507173440 | 51 | 263 | 2.0 | 7.0 | 0.00 | 0.09 | 0.08 | 69 | 1014.5 |
| 20260507170440 | 50 | 270 | 2.0 | 7.0 | 0.00 | 0.11 | 0.08 | 76 | 1014.8 |
| 20260507160441 | 45 | 263 | 2.0 | 6.0 | 0.08 | 0.16 | 0.08 | 91 | 1015.2 |
| 20260507150442 | 45 | 264 | 0.0 | 2.0 | 0.00 | 0.14 | 0.00 | 89 | 1015.5 |
| 20260507140441 | 45 | 291 | 0.0 | 2.0 | 0.00 | 0.24 | 0.00 | 88 | 1015.8 |
| 20260507130441 | 44 | 261 | 1.0 | 3.0 | 0.00 | 0.29 | 0.00 | 92 | 1015.9 |
| 20260507120442 | 42 | 257 | 1.0 | 3.0 | 0.00 | 0.33 | 0.00 | 95 | 1015.8 |
| 20260507110441 | 42 | 277 | 0.0 | 2.0 | 0.00 | 0.37 | 0.00 | 96 | 1016.2 |
| 20260507100441 | 41 | 257 | 0.0 | 2.0 | 0.00 | 0.39 | 0.00 | 96 | 1015.9 |
| 20260507090440 | 41 | 113 | 0.0 | 1.0 | 0.00 | 0.39 | 0.00 | 96 | 1016.1 |
| 20260507080441 | 40 | 0 | 0.0 | 0.0 | 0.00 | 0.39 | 0.00 | 96 | 1016.3 |
| 20260507074840 | 40 | 0 | 0.0 | 0.0 | 0.00 | 0.39 | 0.00 | 96 | 1016.2 |
| 20260507073240 | 40 | 0 | 0.0 | 0.0 | 0.00 | 0.39 | 0.00 | 96 | 1016.1 |
| 20260507071640 | 40 | 0 | 0.0 | 0.0 | 0.00 | 0.39 | 0.00 | 96 | 1016.3 |
| 20260507070040 | 40 | 0 | 0.0 | 0.0 | 0.00 | 0.39 | 0.00 | 96 | 1016.4 |
| 20260507065240 | 40 | 0 | 0.0 | 0.0 | 0.00 | 0.39 | 0.00 | 96 | 1016.4 |
| 20260507064440 | 39 | 0 | 0.0 | 0.0 | 0.00 | 0.39 | 0.00 | 96 | 1016.4 |
| 20260507063640 | 39 | 0 | 0.0 | 0.0 | 0.00 | 0.39 | 0.00 | 96 | 1016.3 |
| 20260507062841 | 39 | 0 | 0.0 | 0.0 | 0.00 | 0.39 | 0.00 | 96 | 1016.5 |
| 20260507062440 | 39 | 0 | 0.0 | 0.0 | 0.00 | 0.39 | 0.00 | 96 | 1016.4 |
| 20260507062041 | 39 | 0 | 0.0 | 0.0 | 0.00 | 0.39 | 0.00 | 96 | 1016.4 |
| 20260507061641 | 39 | 0 | 0.0 | 0.0 | 0.00 | 0.39 | 0.00 | 96 | 1016.6 |
| 20260507061240 | 39 | 0 | 0.0 | 0.0 | 0.00 | 0.39 | 0.00 | 96 | 1016.7 |
| 20260507060840 | 39 | 0 | 0.0 | 0.0 | 0.00 | 0.39 | 0.00 | 96 | 1016.7 |
| 20260507060640 | 39 | 0 | 0.0 | 0.0 | 0.00 | 0.39 | 0.00 | 96 | 1016.9 |
| 20260507060441 | 39 | 0 | 0.0 | 0.0 | 0.00 | 0.39 | 0.00 | 96 | 1016.9 |
| 20260507060340 | 39 | 0 | 0.0 | 0.0 | 0.00 | 0.39 | 0.00 | 96 | 1016.9 |
| 20260507060242 | 39 | 0 | 0.0 | 0.0 | 0.00 | 0.39 | 0.00 | 96 | 1016.9 |
| 20260507060140 | 39 | 0 | 0.0 | 0.0 | 0.00 | 0.39 | 0.00 | 96 | 1016.9 |
| 20260507055407 | 38 | 0 | 0.0 | 0.0 | 0.00 | 0.39 | 0.00 | 96 | 1017.1 |
| 20260507052407 | 38 | 0 | 0.0 | 0.0 | 0.00 | 0.39 | 0.00 | 95 | 1017.6 |
| 20260507045407 | 38 | 0 | 0.0 | 0.0 | 0.00 | 0.39 | 0.00 | 95 | 1017.6 |